User: anonymous   Login
Location: Unspecified
(0.0000°N, 0.0000°E)
Time: 19:55:45
(UTC+00:00)
Language:

Cubesat XI-IV - Orbit

View from above orbital plane
View from above orbital plane
View from above satellite
View from above satellite

Ground track
Ground track

The orbit data is extracted from the following two-line orbital elements,

1 27848U 03031J   22222.28689028  .00000143  00000-0  84284-4 0  9997
2 27848  98.6838 229.6695 0009028 326.9163  33.1449 14.22031267991361
Epoch (UTC): 10 August 2022 06:53:07
Eccentricity: 0.0009028
inclination: 98.6838°
perigee height: 812 km
apogee height: 825 km
right ascension of ascending node: 229.6695°
argument of perigee: 326.9163°
revolutions per day: 14.22031267
mean anomaly at epoch: 33.1449°
orbit number at epoch: 99136

The dashed part of the orbit path shows where the satellite is in the earth's shadow,  

DLR